User: anonymous   Login
Location: Hopkins Observatory
(42.6965°N, 73.1843°W)
Time: 23:40:08
(UTC-05:00)
Language:

UOSAT-12 - Orbit

View from above orbital plane
View from above orbital plane
View from above satellite
View from above satellite

Ground track
Ground track

The orbit data is extracted from the following two-line orbital elements,

1 25693U 99021A   17018.79389022 -.00000117  00000-0  35752-5 0  9990
2 25693  64.5544 226.1036 0020238 326.4341  33.5480 14.80709231958047
Epoch (UTC): 18 January 2017 19:03:12
Eccentricity: 0.0020238
inclination: 64.5544°
perigee height: 613 km
apogee height: 641 km
right ascension of ascending node: 226.1036°
argument of perigee: 326.4341°
revolutions per day: 14.80709231
mean anomaly at epoch: 33.5480°
orbit number at epoch: 95804

The dashed part of the orbit path shows where the satellite is in the earth's shadow,  

DLR